TJS-4

Last updated on Mon Jun 22 2026 00:03:07 GMT+0000 (Coordinated Universal Time)

1 44637U 19070A 26172.54920274 -.00000171 00000+0 00000+0 0 9990 2 44637 0.0293 82.1845 0004425 317.2053 151.5670 1.00273719 24588
UTC large
Height (km)
Speed (km/s)
/
Latitude / Longitude
Inclination (degrees)
Orbital Period (minutes)
Azimuth
Elevation
Range (km)
Doppler Factor

Next 0 passes for location: London (51.5072 / 0.1276)

No passes found over London.
TJS-4